{"data":{"norad_id":43765,"epoch":"2026-05-25T02:41:56.818752Z","epoch_age_seconds":59098,"freshness":"FRESH","line1":"1 43765U 18099H   26145.11246318  .00006020  00000+0  24500-3 0  9997","line2":"2 43765  97.3932 197.6526 0035040   9.7773 350.4139 15.24313969409585","mean_motion":15.24313969,"eccentricity":0.003504,"inclination_deg":97.3932,"raan_deg":197.6526,"arg_perigee_deg":9.7773,"mean_anomaly_deg":350.4139,"bstar":0.000245,"rev_number":40958,"period_min":94.468726868959,"perigee_km":468.77030022186,"apogee_km":516.92215066577,"semimajor_km":6870.9832254438,"source":"CELESTRAK","updated_at":"2026-05-25T13:38:24.897853Z"}}